Lapse_Rate
6.5 6.4 6.4 6.3 6.3 6.3 6.3 6.3 6.2 6.2 6.4 6.9 6.7 6.6 6.4 6.2 6.2 6.3 6.2 6.1 6.2 6.6 6.1 6.1 6.1 6.2 6.3 6.4 6.5 6.6 7.1 7.2 7.2 7.5 8.4 9.2 8.6 9.1 8.5 8.8 8.4 8.6 8.8 9.3 9.0 9.3 9.4 8.7 8.6 8.3 8.3 8.0 7.9 7.7
6.5 6.3 6.4 6.4 6.4 6.3 6.2 6.1 6.1 6.2 6.3 6.4 6.7 7.0 6.9 6.4 6.1 6.2 6.2 6.2 6.2 6.1 6.1 6.0 6.0 6.1 6.2 6.3 6.3 6.4 6.7 6.7 7.1 7.3 7.0 7.4 7.7 7.8 8.2 9.1 8.3 8.4 8.5 9.0 9.1 9.0 8.8 8.3 8.1 7.9 7.7 7.6 7.7 7.7
6.5 6.6 6.4 6.4 6.4 6.5 6.3 6.2 6.1 6.1 6.2 6.3 6.3 6.4 6.7 6.9 6.5 6.1 6.0 6.1 6.2 6.1 6.1 6.1 6.0 6.1 6.2 6.2 6.3 6.2 6.2 6.6 6.7 6.9 7.1 7.0 7.3 7.1 8.0 8.3 7.8 7.8 8.0 8.3 8.1 8.2 8.0 8.0 7.8 7.8 7.6 7.6 7.6 7.6
6.6 6.5 6.6 6.4 6.4 6.4 6.4 6.3 6.3 6.1 6.2 6.2 6.2 6.2 6.3 6.3 6.4 6.2 6.1 6.1 6.1 6.1 6.1 6.0 6.2 6.2 6.2 6.3 6.2 6.1 6.2 6.4 6.6 6.5 6.6 6.5 6.3 7.1 7.1 7.3 7.6 7.9 7.4 7.5 7.5 7.9 7.7 7.6 7.5 7.5 7.4 7.5 7.6 7.8
6.6 6.6 6.7 6.5 6.4 6.5 6.4 6.4 6.5 6.3 6.2 6.3 6.3 6.4 6.4 6.4 6.3 6.2 6.2 6.2 6.2 6.2 6.0 6.0 6.1 6.2 6.3 6.3 6.2 6.1 6.1 6.1 6.3 6.3 6.0 6.1 5.8 6.6 6.4 6.8 7.2 7.3 7.6 7.4 7.9 7.3 7.1 7.3 7.2 7.3 7.5 7.6 7.7 7.7
6.7 6.7 6.6 6.6 6.5 6.4 6.3 6.5 6.4 6.4 6.4 6.3 6.3 6.4 6.5 6.4 6.4 6.2 6.0 6.1 6.3 6.2 6.1 5.9 6.4 6.4 6.3 6.5 6.3 6.2 6.2 6.2 6.2 6.2 5.6 6.1 6.7 6.7 6.3 6.8 6.9 6.3 7.1 7.2 7.1 7.2 6.9 6.8 7.0 7.1 7.3 7.4 7.4 7.5
6.6 6.5 6.5 6.4 6.3 6.4 6.2 6.2 6.3 6.3 6.4 6.4 6.2 6.3 6.3 6.2 6.3 6.3 6.3 6.3 6.2 6.1 6.1 6.1 6.0 6.6 6.6 6.5 6.4 6.4 6.4 6.3 6.2 5.9 6.3 6.2 5.8 6.6 6.1 6.5 6.8 6.5 6.9 7.0 6.8 6.6 6.5 6.6 6.7 6.9 7.2 7.3 7.5 7.6
6.4 6.4 6.4 6.2 6.2 5.8 6.1 6.0 6.1 6.2 6.2 6.2 6.2 6.2 6.3 6.2 6.2 6.2 6.3 6.2 6.2 6.2 6.2 6.2 5.6 6.3 6.5 6.0 5.8 6.5 6.5 6.5 6.4 5.8 6.6 6.6 5.8 6.4 5.8 6.8 7.5 6.8 7.0 7.0 6.9 6.6 6.6 6.9 6.9 6.8 7.0 7.3 7.4 7.5
6.7 6.7 6.5 6.4 6.3 6.1 6.0 5.9 5.7 5.9 6.0 6.0 6.0 5.9 6.0 6.0 6.1 6.3 6.3 6.3 6.3 6.2 6.2 6.3 5.9 6.2 6.4 6.4 6.4 6.4 6.3 5.6 5.8 6.4 5.9 6.2 6.1 6.0 6.7 7.0 7.4 7.1 7.1 7.1 7.0 7.0 7.0 7.0 7.1 7.1 7.1 7.1 7.4 7.5
6.6 6.7 6.8 6.7 6.5 6.4 6.3 6.2 6.0 5.9 6.1 6.1 5.6 5.8 5.3 6.0 6.2 6.2 6.2 6.2 6.2 6.2 6.2 6.4 6.5 6.0 6.5 6.5 5.8 6.2 6.4 6.2 6.3 6.3 6.1 6.4 6.4 6.7 6.6 6.4 6.5 7.0 7.0 7.0 7.1 7.1 6.8 6.9 6.9 6.9 7.1 7.2 7.3 7.4
6.9 6.9 6.8 6.8 6.9 6.7 6.5 6.4 6.1 5.7 5.8 5.9 5.8 5.9 5.8 6.2 6.2 6.2 6.2 6.1 6.2 6.1 6.3 6.4 6.5 5.8 6.5 6.0 5.9 6.4 6.0 6.1 6.6 6.6 6.5 7.0 7.3 7.0 7.3 7.1 7.0 6.8 6.6 6.5 6.6 7.0 7.2 7.3 7.1 7.1 7.0 6.8 6.4 7.0
6.8 6.9 6.8 6.9 6.9 6.9 6.9 6.6 6.4 6.2 6.1 6.2 6.1 6.2 6.1 6.0 5.8 6.0 5.5 6.0 6.2 5.5 6.2 5.7 5.6 6.2 6.5 6.5 6.4 6.5 6.1 6.4 6.4 5.9 6.4 6.8 7.5 6.9 7.0 6.8 6.7 6.6 6.6 6.6 6.6 6.6 7.1 7.2 7.4 7.3 7.0 6.7 6.6 6.6
6.9 6.8 6.8 6.7 6.8 6.8 6.8 6.6 6.4 6.3 6.4 6.2 6.0 6.0 6.1 6.0 5.8 5.9 5.5 6.1 5.7 6.2 6.1 5.8 5.4 5.3 5.9 6.1 6.1 6.4 6.0 6.1 5.9 5.8 6.2 7.0 6.6 6.5 6.4 6.3 6.4 6.4 6.5 6.7 6.9 7.0 7.1 7.3 7.4 7.4 7.0 7.0 6.8 6.7
7.0 6.9 6.8 6.7 6.7 6.8 6.7 6.5 6.5 6.4 6.3 6.2 6.2 6.2 6.2 6.1 6.1 6.1 6.2 6.1 5.7 5.7 5.7 5.7 5.6 5.5 5.4 5.4 5.4 5.6 5.8 5.5 5.8 6.3 6.7 6.7 5.8 5.9 6.3 6.2 6.3 6.5 6.5 6.8 7.2 7.3 7.4 7.3 7.2 7.1 7.0 7.0 7.0 6.7
7.3 7.3 7.0 6.9 6.9 6.9 6.9 6.8 6.8 6.7 6.5 6.5 6.7 6.7 6.6 6.4 6.3 6.3 5.8 6.0 6.3 6.1 5.9 5.7 5.6 5.5 5.5 5.4 5.4 5.5 5.5 5.4 6.0 6.6 6.1 5.6 5.5 5.8 6.1 6.3 6.5 6.7 6.9 6.9 7.1 7.2 7.3 7.3 7.3 7.2 7.0 7.0 6.9 6.8
7.7 7.5 7.5 7.6 7.3 7.2 7.0 6.9 6.9 6.7 6.6 6.8 6.9 6.9 6.8 6.5 6.6 6.4 6.0 5.9 5.8 5.9 6.2 6.0 5.8 5.6 5.6 5.6 5.5 5.5 5.8 6.1 6.2 5.7 5.6 5.5 5.6 5.8 6.1 6.3 6.6 7.1 7.0 6.8 6.5 6.9 7.1 7.0 6.7 6.7 7.0 6.9 6.7 6.7
7.6 7.8 7.4 7.5 7.5 7.3 7.0 6.9 6.9 6.8 6.9 7.0 7.0 7.0 6.8 6.9 6.9 6.6 6.4 6.0 5.8 6.1 6.2 6.1 5.8 5.4 5.5 5.5 5.6 5.5 5.7 5.8 5.7 5.7 5.5 5.5 5.5 5.6 5.9 6.5 7.0 7.1 7.2 7.0 6.8 6.7 6.9 6.9 6.8 7.0 6.9 6.7 6.7 6.9
7.3 7.4 7.4 7.5 7.6 7.5 7.2 7.2 7.3 7.4 7.3 7.2 7.2 6.9 7.2 7.0 6.6 6.5 6.3 6.1 6.3 6.2 6.2 5.9 5.8 5.6 5.8 5.8 6.0 6.1 6.0 5.8 5.7 5.7 5.5 5.6 5.5 5.4 6.1 6.2 6.4 6.6 6.4 6.5 6.5 6.5 6.4 6.5 6.4 6.5 6.6 6.7 6.7 6.7
7.4 7.5 7.4 7.5 7.6 7.6 7.5 7.3 7.2 7.2 7.3 7.2 7.1 7.0 6.8 6.7 6.6 6.2 6.0 6.2 6.0 6.0 5.9 5.8 5.7 5.8 5.8 5.8 5.9 6.0 6.2 6.0 5.9 5.7 5.5 5.2 5.4 5.5 5.4 5.7 6.2 6.2 6.2 6.3 6.2 6.2 6.3 6.6 6.4 6.4 6.5 6.4 6.4 6.5
6.6 6.6 6.8 6.8 7.0 6.9 6.8 6.7 6.8 6.9 6.5 6.6 6.6 6.3 6.3 6.0 5.6 5.8 5.7 5.7 5.7 5.6 5.7 5.7 6.0 5.7 5.7 6.0 6.0 6.1 6.1 5.9 5.7 5.8 5.7 5.5 5.4 5.4 5.5 5.4 5.6 5.6 5.7 5.8 5.7 5.9 5.6 5.7 6.0 6.3 6.1 5.8 5.3 5.2
6.0 6.0 5.9 6.1 6.0 6.2 6.2 6.3 6.2 6.1 6.1 6.1 6.1 5.9 5.8 5.7 5.7 5.8 5.8 5.8 5.6 5.5 5.8 6.2 5.8 5.8 6.1 6.2 6.3 6.4 6.2 6.0 5.9 5.8 5.7 5.4 5.4 5.4 5.2 5.1 5.2 5.2 5.2 5.4 5.5 5.5 5.4 5.3 5.2 5.1 5.2 5.3 5.2 5.2
5.9 5.8 5.8 5.9 6.0 6.0 6.2 6.2 6.0 6.2 6.2 6.1 6.0 5.7 5.7 5.8 5.7 5.5 5.7 5.6 5.6 6.0 6.2 6.3 6.4 6.5 6.3 6.3 6.3 6.2 6.1 6.0 6.1 6.1 5.8 5.7 5.7 5.6 5.5 5.3 5.5 5.4 5.6 5.2 5.1 5.1 5.1 4.9 4.9 4.8 4.8 5.3 5.4 5.0
5.7 5.7 5.9 5.9 5.9 6.1 6.3 5.8 5.8 5.6 6.0 6.0 6.0 5.9 5.8 5.8 5.8 5.8 5.7 5.9 6.3 6.3 6.6 6.8 6.6 6.6 6.4 6.2 6.1 6.2 6.2 6.1 6.0 5.7 5.8 5.8 5.6 5.5 5.3 5.1 5.1 5.0 5.1 5.2 4.9 4.9 4.9 5.3 5.2 5.6 4.9 5.3 5.0 4.9
5.6 5.6 6.1 6.5 6.5 6.7 6.5 6.6 6.2 6.2 6.2 6.2 6.2 6.1 6.0 6.0 6.1 6.3 6.3 6.3 6.4 6.4 6.5 6.4 6.5 6.5 6.3 6.3 6.3 6.3 6.2 6.0 5.7 5.6 5.4 5.5 5.5 5.4 5.6 5.3 5.1 5.1 5.4 5.8 5.7 5.4 5.1 5.1 5.8 5.6 5.1 5.1 5.0 4.9
6.2 6.4 6.6 6.6 6.6 6.6 6.4 6.5 6.3 6.3 6.4 6.3 6.2 6.3 6.3 6.3 6.1 6.0 6.1 6.2 6.0 6.2 6.2 6.1 6.0 6.0 6.0 5.9 5.8 5.7 5.9 5.6 5.7 5.5 5.5 5.5 5.4 5.5 5.6 5.5 5.4 5.9 6.2 6.3 6.3 6.3 6.4 6.5 6.5 6.3 5.7 5.3 5.1 5.3
6.4 6.6 6.6 6.6 6.6 6.6 6.4 6.4 6.3 6.4 6.4 6.3 6.3 6.4 6.4 6.2 6.1 5.8 6.0 6.0 5.9 5.8 5.8 5.7 5.8 6.1 6.0 5.7 5.8 5.8 6.1 6.2 6.1 5.7 5.6 5.8 5.7 5.5 5.4 5.4 5.4 5.3 5.8 6.1 6.1 6.1 6.1 6.2 6.2 6.3 6.2 6.0 6.0 6.1
6.3 6.7 6.7 6.7 6.8 6.8 6.5 6.5 6.5 6.3 6.4 6.4 6.4 6.3 6.5 6.2 5.8 5.7 5.8 5.9 5.9 6.0 6.0 6.0 5.9 5.8 5.7 5.8 5.9 6.0 6.0 6.0 6.0 6.0 6.1 6.1 6.0 6.0 5.9 5.6 5.2 5.2 5.4 5.7 5.7 5.8 5.8 5.9 5.9 6.0 6.0 6.0 6.0 6.0
6.5 6.5 6.7 6.4 6.4 6.4 6.4 6.4 6.2 6.0 6.0 6.1 6.2 6.2 6.0 5.8 5.5 5.6 5.8 5.9 6.0 6.0 6.1 6.3 6.3 6.3 6.2 6.2 6.1 6.0 5.9 5.8 5.6 5.7 5.4 5.2 5.2 5.5 5.8 5.7 5.8 5.8 5.9 5.8 5.8 5.8 5.9 5.9 5.9 5.9 5.9 6.0 6.0 6.0
6.6 6.6 6.4 6.5 6.5 6.4 6.2 6.3 6.1 6.0 6.3 6.3 6.2 6.0 5.7 5.8 5.9 5.8 6.0 6.0 5.8 5.7 5.7 5.7 5.9 5.6 5.5 5.5 5.4 5.4 5.4 5.4 5.9 6.1 6.0 5.6 5.3 5.3 5.2 5.4 5.7 5.7 5.6 5.6 5.7 5.6 5.5 5.5 5.6 5.6 5.7 5.7 5.8 5.9
6.2 6.3 6.5 6.5 6.5 6.3 6.1 6.1 6.1 6.3 6.3 6.3 6.3 6.1 5.9 5.8 5.9 6.0 5.9 5.7 5.6 5.6 5.6 5.7 5.7 5.6 5.6 5.6 5.6 5.8 5.5 5.8 6.2 6.2 6.3 6.3 6.3 6.3 6.2 6.1 5.9 5.8 5.7 5.6 5.5 5.5 5.6 5.4 5.5 5.6 5.8 5.9 6.0 5.9
6.1 6.4 6.5 6.6 6.3 6.2 6.1 6.2 6.2 6.2 6.2 6.2 6.2 6.2 6.1 6.0 5.9 6.1 6.0 5.8 5.8 5.8 5.7 5.5 5.5 6.0 6.1 6.2 6.4 6.5 6.5 6.3 6.3 6.3 6.2 6.1 6.1 6.1 6.1 6.0 5.9 5.9 5.8 5.7 5.6 5.6 5.7 5.5 5.4 5.5 5.8 6.0 6.2 6.1
6.6 6.7 6.7 6.6 6.4 6.4 6.2 6.3 6.3 6.3 6.4 6.3 6.3 6.3 6.2 6.1 5.9 5.7 5.9 5.8 5.7 5.9 6.0 6.2 6.3 6.4 6.4 6.4 6.3 6.2 6.2 6.1 6.1 6.0 6.0 6.0 6.0 6.0 5.9 5.9 5.8 5.7 5.7 5.7 5.6 5.7 5.8 5.9 6.0 6.1 6.1 6.2 6.3 6.4
6.8 6.7 6.6 6.7 6.6 6.5 6.4 6.4 6.4 6.4 6.3 6.3 6.2 6.1 6.0 6.0 5.8 5.7 5.9 6.0 6.1 6.1 6.1 6.2 6.2 6.2 6.2 6.2 6.1 6.0 5.9 5.8 5.8 5.8 5.8 5.4 5.2 5.2 5.1 5.1 5.2 5.3 5.4 5.6 5.6 5.6 5.6 5.4 5.6 6.0 6.3 6.4 6.4 6.4
Wind_Speed
18 18 17 16 14 14 14 10 9 11 11 11 13 14 14 12 12 8 2 6 5 4 3 3 3 4 3 2 4 6 4 2 4 6 6 5 8 5 6 3 5 11 9 10 11 11 13 9 7 10 5 6 5 9
18 19 18 17 16 12 11 11 10 10 10 10 11 13 12 10 10 10 3 5 6 4 5 4 9 9 7 4 5 4 3 3 5 4 0 4 6 2 5 8 4 6 3 5 3 2 6 4 3 6 7 9 12 10
20 18 18 17 16 14 13 13 11 11 9 9 10 11 11 9 5 7 5 5 4 3 4 4 2 2 2 5 9 4 3 4 3 3 3 2 4 3 7 8 2 3 1 4 2 6 2 4 5 7 8 11 13 14
20 20 17 16 15 14 12 10 12 11 9 9 9 10 10 9 3 6 4 4 4 4 4 5 3 3 5 2 6 7 5 4 5 4 3 3 3 2 2 4 5 5 1 4 6 3 5 3 8 11 11 10 10 10
19 19 18 17 16 15 14 13 12 12 10 8 8 9 10 10 3 7 4 1 3 4 4 2 1 3 3 2 4 5 4 5 4 3 4 3 2 4 3 3 7 4 4 6 4 5 4 5 12 13 10 10 6 4
20 17 16 16 16 15 14 16 13 11 10 7 7 7 8 7 5 5 3 4 2 5 3 2 2 2 1 1 5 6 5 4 4 3 3 3 1 4 4 7 4 3 2 5 2 6 8 12 11 8 9 11 6 6
18 18 18 17 16 15 14 16 13 11 10 7 5 6 7 5 6 4 5 4 4 5 3 3 3 3 2 2 3 4 4 3 4 2 3 5 3 4 7 11 5 3 5 6 9 10 12 10 11 12 11 9 8 11
20 20 20 19 18 18 16 14 15 12 9 7 5 5 8 6 9 5 2 3 5 4 3 3 1 4 2 2 3 1 3 4 5 3 2 5 3 4 4 6 6 8 11 11 10 8 9 11 12 14 11 10 10 9
19 19 18 16 15 16 16 15 15 13 10 7 5 7 4 4 3 2 3 3 4 3 3 2 3 3 1 2 1 4 3 4 3 4 4 3 7 7 7 7 7 7 7 10 12 14 14 14 14 13 13 13 13 13
17 17 14 13 11 9 11 13 15 15 11 6 4 4 4 2 5 5 5 4 4 4 3 3 1 1 4 0 3 2 2 2 3 4 1 5 9 14 8 7 8 8 8 12 13 13 13 13 13 13 14 13 12 13
12 14 14 11 11 10 14 14 17 15 9 4 3 2 4 3 3 1 2 3 3 3 4 2 3 2 2 3 2 1 2 1 3 4 3 4 5 6 4 1 2 4 7 10 12 14 15 18 18 15 14 14 12 12
10 13 15 15 14 15 14 17 22 10 4 3 2 0 3 2 1 3 3 2 4 2 4 4 4 1 3 2 3 2 3 2 4 2 4 4 5 7 3 3 5 7 11 14 15 18 19 18 16 15 12 10 10 2
8 11 11 13 16 18 17 18 18 8 12 3 2 4 2 1 3 4 6 3 3 4 5 6 5 1 4 3 2 2 3 4 3 4 4 3 6 3 6 9 11 14 16 16 17 18 19 15 12 10 7 4 9 10
5 9 10 12 19 18 21 21 15 9 3 1 3 3 3 3 5 4 3 2 4 2 5 4 4 1 2 4 1 3 1 3 4 4 5 3 6 9 13 13 14 17 19 17 17 15 14 9 6 6 9 11 9 8
15 13 12 9 17 23 22 23 15 4 2 1 2 3 6 2 0 0 2 3 4 3 4 3 3 2 2 2 2 2 3 4 4 4 7 11 16 18 19 19 18 16 14 14 13 7 3 5 9 11 11 9 9 8
14 16 7 21 23 24 25 20 4 2 2 2 3 4 3 5 4 5 6 5 4 3 1 2 2 2 3 2 3 4 3 4 4 6 10 14 18 20 15 14 13 13 10 10 3 5 7 7 7 8 7 9 8 9
6 4 13 18 24 24 18 3 2 3 2 3 4 5 4 3 1 5 6 5 3 3 3 2 4 4 2 3 3 3 2 5 7 11 10 14 14 12 9 9 9 8 7 3 2 5 6 7 9 9 8 7 8 8
11 13 20 23 22 8 4 2 2 4 4 5 4 3 4 2 2 5 5 4 4 2 1 2 3 2 3 3 1 3 4 7 8 8 8 12 10 8 8 7 5 6 8 5 6 7 6 6 5 5 5 5 7 7
10 15 20 19 4 2 3 5 3 3 6 3 5 3 3 3 4 2 4 4 3 2 1 0 3 3 4 3 3 5 7 5 3 6 7 6 4 7 8 4 2 5 1 5 5 5 5 6 5 4 4 4 3 4
15 14 14 10 1 2 3 3 2 3 3 2 4 4 4 3 4 6 5 5 4 3 4 4 4 3 3 4 1 3 6 6 5 4 2 5 3 5 7 7 6 3 4 4 5 3 4 2 2 2 3 3 2 4
4 3 5 6 2 3 2 2 3 2 2 2 2 4 3 4 5 6 6 4 5 3 4 5 6 7 6 7 5 7 7 5 5 4 3 3 3 4 4 4 4 4 5 5 5 3 4 5 3 2 2 2 1 1
1 3 1 2 1 2 2 2 1 2 1 1 2 2 3 4 4 3 3 4 2 3 2 2 4 7 9 10 7 6 7 6 5 4 5 4 5 3 3 3 5 5 5 5 4 5 4 3 3 3 4 2 4 3
5 2 2 3 3 3 4 2 2 2 2 3 4 3 2 1 1 3 1 2 3 4 6 7 12 13 9 9 8 7 3 3 1 3 2 2 3 3 5 4 5 6 6 5 4 6 5 3 4 6 4 4 5 5
7 4 5 3 5 3 4 5 3 2 2 2 4 4 3 3 6 3 2 2 2 2 3 5 4 3 3 1 1 3 3 2 3 1 2 5 4 3 4 5 6 6 6 6 6 5 5 5 2 6 6 6 6 7
1 2 4 3 4 3 1 4 5 4 3 9 5 3 2 1 3 4 7 3 5 5 4 1 4 4 5 5 4 4 2 5 6 6 4 4 5 5 5 4 4 4 5 6 6 7 6 6 6 7 7 7 8 9
3 2 4 7 4 4 5 4 6 9 9 6 4 3 1 3 4 4 5 6 5 8 7 6 5 5 5 4 6 6 6 6 6 7 6 7 7 7 8 7 6 4 3 5 6 7 8 8 8 9 10 10 8 9
6 7 3 1 3 4 2 3 4 5 6 5 3 2 3 4 6 4 5 7 6 6 5 5 5 5 5 5 5 4 4 5 5 7 7 7 7 6 7 8 10 8 6 7 7 7 7 7 7 8 9 9 10 10
4 5 8 8 7 7 13 8 6 6 5 2 2 4 5 4 4 4 5 4 3 4 5 5 5 5 5 5 5 5 5 5 5 6 8 5 3 3 3 6 7 0 8 10 11 10 9 9 9 9 9 9 9 9
4 2 4 13 10 7 10 14 10 6 7 9 11 12 10 6 4 5 4 4 4 6 6 6 7 5 5 3 4 4 5 6 9 13 12 10 10 8 9 9 8 8 7 8 9 12 14 13 13 12 13 10 10 9
11 8 11 14 15 14 8 8 11 9 8 8 8 7 7 6 5 2 3 4 6 6 5 4 4 6 7 8 8 10 9 7 8 9 10 11 11 11 11 11 11 12 11 12 12 13 9 11 12 11 12 11 10 10
4 7 10 9 9 7 6 4 5 5 5 6 5 6 6 4 7 5 6 4 3 7 8 8 8 8 8 9 9 10 10 9 10 11 11 10 11 11 12 12 12 12 12 13 13 12 12 12 10 11 10 11 14 7
4 3 4 4 5 3 3 4 4 4 4 4 4 4 4 5 4 4 5 7 7 7 6 8 8 9 9 10 9 9 3 10 10 10 12 9 9 11 11 10 10 11 11 12 12 13 15 16 14 15 14 15 15 16
0 2 2 1 2 2 2 3 1 0 1 1 2 2 3 4 4 4 3 5 6 7 8 8 9 10 12 11 11 8 9 10 11 4 1 4 4 8 10 9 10 12 15 13 13 13 14 16 15 16 17 16 15 13
Wind_Direction
271 272 271 274 276 275 269 264 286 303 317 328 332 339 342 343 347 330 10 5 339 313 325 321 338 317 307 298 301 18 254 158 249 245 252 212 257 179 238 292 222 222 220 222 243 258 235 132 142 235 11 341 352 312
269 265 270 268 267 271 263 268 272 286 304 319 325 330 333 334 334 325 308 352 329 257 344 317 298 289 288 346 327 333 4 20 13 273 191 309 232 225 258 218 171 232 322 294 275 35 86 85 344 321 312 293 292 298
267 268 260 262 263 264 259 259 265 269 286 306 314 323 327 327 326 329 324 335 286 272 215 233 131 74 279 256 247 285 115 347 76 350 331 329 266 309 232 236 275 157 323 267 255 132 44 316 318 323 319 293 285 272
265 262 262 253 252 256 260 261 267 266 265 292 304 314 325 324 295 309 325 348 282 295 283 107 184 291 332 263 220 237 310 288 297 294 291 292 280 351 301 347 279 16 160 244 250 236 311 132 26 351 327 311 292 271
266 265 255 250 253 253 252 250 255 268 249 269 293 306 319 325 267 283 289 342 349 321 330 336 314 92 74 186 211 210 250 281 275 249 242 245 297 273 199 288 245 207 259 251 325 50 343 350 343 336 325 323 306 252
258 253 249 245 251 254 255 238 234 250 242 245 283 302 313 306 269 269 220 177 286 343 282 265 70 180 352 250 218 227 241 245 259 288 266 266 238 281 268 254 294 359 299 17 56 341 329 310 311 359 341 330 292 240
250 247 244 242 244 242 248 239 229 232 223 217 261 286 303 262 266 281 358 19 345 308 278 271 180 119 344 204 149 174 194 219 261 254 242 272 233 227 259 255 236 228 274 269 309 307 302 314 315 320 319 320 309 297
241 239 236 233 241 234 229 236 237 213 204 205 235 272 295 249 268 257 173 262 250 271 257 283 148 186 344 177 158 182 164 199 187 258 217 246 222 225 260 256 279 285 279 282 296 300 303 304 296 286 299 305 289 262
236 243 239 228 224 237 242 227 209 195 193 205 225 267 191 232 226 85 101 200 218 300 308 269 271 110 300 140 150 173 242 208 113 239 231 237 227 223 237 244 245 248 278 297 303 303 300 292 288 286 287 284 274 266
238 228 227 217 223 221 236 233 194 189 176 184 188 210 203 131 104 178 195 201 196 186 224 265 48 194 299 84 141 248 207 277 239 171 118 240 253 246 233 239 247 273 303 294 288 292 299 298 299 289 282 279 273 273
224 217 206 200 213 208 223 198 177 152 152 196 167 226 80 114 223 223 223 218 172 238 205 235 278 295 107 284 35 4 345 291 255 120 260 244 256 180 106 256 336 287 289 290 299 298 293 289 288 285 277 269 276 275
215 213 209 214 209 205 197 171 157 176 175 136 149 260 148 188 198 223 203 177 235 236 159 206 138 256 107 304 268 154 276 227 253 52 251 251 84 90 64 6 334 321 315 307 305 299 296 291 284 270 269 274 272 91
198 195 207 191 184 179 179 165 171 118 142 82 249 188 157 108 194 204 185 215 219 173 174 175 159 170 159 229 238 259 242 241 346 235 243 290 82 34 354 337 332 329 329 313 303 297 294 282 268 256 250 169 137 154
182 165 166 180 179 172 165 159 150 127 72 152 154 143 219 164 228 205 230 100 73 247 154 171 138 229 98 205 267 242 282 271 261 249 252 328 46 345 329 321 317 317 316 307 296 292 289 255 231 178 150 152 148 173
96 159 168 176 162 155 153 147 142 102 81 287 249 213 207 234 124 188 113 132 154 142 184 173 166 269 153 242 208 292 224 251 250 285 347 351 335 316 312 313 306 304 300 296 282 263 234 151 158 149 146 147 129 134
86 80 82 136 135 134 133 135 112 62 157 247 222 247 193 226 162 172 172 178 161 173 158 255 158 212 221 235 223 237 258 247 349 355 318 305 298 296 292 295 305 297 283 272 240 120 121 121 125 122 140 139 147 141
24 92 120 115 121 128 136 114 165 140 230 240 220 222 274 316 270 164 186 177 127 200 170 180 197 194 229 236 233 222 285 345 318 304 303 288 284 304 315 280 287 316 308 250 130 113 120 139 148 148 134 126 124 125
112 123 131 132 134 140 140 167 150 176 236 237 250 164 198 283 203 145 182 170 193 230 224 74 321 251 235 243 222 31 335 298 303 295 314 316 347 24 19 36 22 359 340 43 80 94 96 98 95 92 110 116 121 129
124 136 141 151 156 114 160 173 212 246 225 248 237 228 205 212 227 338 173 175 207 64 157 343 252 232 255 23 324 288 278 281 288 302 302 292 294 141 143 214 10 306 351 59 60 73 79 47 51 74 115 175 126 149
111 135 158 170 264 246 175 178 220 260 243 182 247 207 215 219 193 193 210 204 203 222 227 216 229 242 263 250 254 256 278 290 296 304 244 317 3 69 49 34 36 28 95 107 91 317 114 116 66 39 19 25 244 166
136 140 185 222 261 272 293 223 224 267 340 259 319 206 213 218 217 212 222 172 199 225 240 248 260 271 309 293 274 273 277 253 253 278 328 18 26 12 30 36 15 24 359 11 13 90 263 353 12 339 258 257 248 213
101 117 53 60 306 304 275 272 333 36 268 301 270 222 233 202 186 174 126 192 245 255 275 263 267 282 274 274 287 285 293 287 268 254 212 249 301 358 349 332 331 27 336 332 336 331 343 326 337 301 277 189 240 243
105 134 213 208 204 206 269 172 189 208 205 217 173 196 203 116 109 98 143 211 257 225 215 229 251 260 262 265 264 265 246 277 321 341 15 18 288 345 325 311 321 320 322 325 339 290 320 57 232 261 284 258 277 273
192 188 193 210 202 249 185 193 222 223 221 219 171 180 193 163 161 218 44 85 157 189 190 194 192 171 196 176 61 15 24 354 298 342 336 317 342 328 335 323 330 332 335 310 300 303 302 295 331 266 257 271 269 268
275 201 220 227 219 252 264 148 145 160 97 70 67 47 6 73 40 58 74 75 63 65 67 70 87 60 41 46 45 93 44 346 357 334 39 318 313 314 315 347 342 13 351 335 335 331 316 306 295 291 290 283 285 288
2 18 1 359 358 359 12 65 65 71 87 91 79 91 109 88 68 46 27 11 24 28 21 26 7 11 51 30 11 23 15 357 335 322 4 348 323 320 319 313 313 329 39 338 331 327 319 307 296 290 286 280 232 247
23 24 15 25 327 299 33 53 62 52 56 52 55 59 53 63 54 47 41 29 22 19 18 12 16 11 15 18 16 15 4 352 354 330 312 307 308 304 296 297 305 314 322 294 289 293 301 305 304 300 294 286 280 278
359 3 19 24 56 46 57 55 52 40 36 53 48 64 43 53 59 46 44 42 38 67 57 53 42 32 30 17 7 1 5 351 359 347 344 333 300 285 316 306 303 94 282 282 286 289 283 281 286 290 293 291 288 280
28 19 35 61 61 57 40 49 62 50 56 76 80 82 92 86 92 79 51 25 337 36 31 32 24 13 23 15 9 348 342 340 341 334 334 331 329 337 341 323 311 303 296 285 232 235 264 269 272 274 277 275 273 273
59 77 75 69 67 69 55 61 74 79 77 94 107 124 117 98 76 27 358 22 15 23 7 0 2 10 0 359 355 353 348 15 5 345 335 329 325 320 322 321 322 317 314 310 300 294 264 238 246 253 252 255 257 255
80 79 81 81 79 68 65 85 99 85 81 78 74 87 84 112 108 61 38 355 343 32 14 6 11 24 356 351 344 336 333 346 341 334 346 328 324 328 329 323 316 314 311 309 305 297 293 295 295 297 288 276 280 280
76 54 82 79 78 56 22 44 44 63 72 86 91 114 132 93 77 78 24 355 15 12 17 356 357 350 351 341 339 345 15 325 335 347 345 340 342 341 327 324 335 332 322 314 308 306 308 306 297 292 288 280 271 265
300 46 15 21 46 23 43 314 334 321 248 97 81 36 38 23 63 50 72 32 4 355 354 350 346 342 343 340 340 335 330 330 337 296 116 341 307 325 319 334 336 333 333 328 329 327 328 335 330 330 324 323 329 333